x

Gravelly Shoals Light Mi (gslm4) Weather Station

10:40am - Sat 25th Feb 2017 All times are CST. -6 hours from GMT.

  • Wind
    21mph, 29mph gusts
  • Air Temp 29°f
  • Sea Pressure 1000mb
  • Gravelly Shoals Light Mi
  • Gravelly Shoals Light Mi

More Historic Weather Station data

Upgrade to MSW Pro to gain access to the past 30 days of data for over 8000 Wavebouys and Weather Stations around the globe.

Join Pro

Comparision Forecast

View Surf forecast
   
Sat 02/25 10:40am 21 29 mph 1000mb 29f
10:30am 25 41 mph 999.7mb 29f
10:20am 28 40 mph 999.3mb 32f
10:10am 29 33 mph 999.3mb 31f
10:00am 29 34 mph 999.3mb 31f
9:40am 29 34 mph 999.3mb 31f
9:32am 29 33 mph 999.3mb 31f
9:30am 31 34 mph 999.3mb 31f
9:20am 30 39 mph 999mb 31f
9:18am 34
mph
999mb 32f
9:10am 34 39 mph 998.6mb 32f
9:00am 32 36 mph 999mb 32f
8:40am 31 38 mph 999mb 32f
8:32am 32 33 mph 999mb 32f
8:30am 30 39 mph 999mb 32f
8:20am 34 41 mph 999mb 33f
8:17am 34
mph
998.6mb 33f
8:10am 34 43 mph 998.6mb 33f
8:00am 37 43 mph 998.6mb 33f
7:40am 37 44 mph 998.3mb 33f
7:32am 37 41 mph 998.6mb 33f
7:30am 37 44 mph 998.3mb 33f
7:17am 36
mph
998mb 33f
7:10am 34 43 mph 998mb 33f
7:00am 34 39 mph 997.6mb 33f
6:40am 33 41 mph 997.6mb 33f
6:30am 32 38 mph 997.6mb 33f
6:20am 33 37 mph 997.6mb 33f
6:16am 32
mph
997.6mb 33f
6:10am 32 39 mph 997.6mb 33f
6:03am 34
mph
997.6mb 34f
6:00am 34 38 mph 997.3mb 34f
5:40am 18 26 mph 997.6mb 34f
5:30am 14 24 mph 997.6mb 34f
5:20am 15 22 mph 997.6mb 34f
5:16am 10
mph
997.6mb 34f
5:10am 14 30 mph 997.6mb 35f
5:02am 17 30 mph 997.6mb 35f
5:00am 20 34 mph 997.6mb 35f
4:40am 23 28 mph 997.3mb 35f
4:30am 17 33 mph 997.3mb 36f
4:20am 26 31 mph 997mb 36f
4:16am 25
mph
997mb 36f
4:10am 26 32 mph 996.6mb 36f
4:00am 26 29 mph 996.6mb 36f
3:59am 24 29 mph 996.6mb 36f
3:40am 22 28 mph 997mb 36f
3:30am 25 29 mph 997mb 36f
3:20am 14 22 mph 997.3mb 36f
3:15am 16
mph
997.3mb 36f
3:10am 20 29 mph 997.3mb 37f
3:00am 26 29 mph 997mb 36f
2:40am 20 30 mph 997.3mb 37f
2:31am 14 30 mph 997.3mb 36f
2:30am 14 22 mph 997.3mb 36f
2:20am 11 18 mph 997.3mb 37f
2:15am 8 16 mph 997.3mb 37f
2:10am 9 15 mph 997.3mb 37f
1:40am 8 15 mph 997mb 37f
1:30am 14 16 mph 996.6mb 35f
1:20am 11 15 mph 997mb 35f
1:14am 10 14 mph 997.3mb 35f
1:10am 8 9 mph 997.3mb 35f
1:00am 5 6 mph 997.3mb 34f
12:40am 11 14 mph 997mb 35f
12:30am 10 11 mph 997mb 35f
12:20am 11 14 mph 997mb 35f
12:14am 11 14 mph 997.3mb 35f
12:10am 11 14 mph 997.3mb 35f
12:00am 9 11 mph 996.3mb 35f
Fri 02/24 11:40pm 6 10 mph 997.3mb 35f
11:30pm 9 11 mph 997.3mb 35f
11:20pm 9
mph
997mb 35f
11:13pm 8 15 mph 997mb 35f
11:10pm 7 9 mph 997mb 35f
11:00pm 7
mph
997mb 35f
10:40pm 10 11 mph 997mb 35f
10:30pm 11 14 mph 996.3mb 36f
10:20pm 14 16 mph 995.9mb 36f
10:13pm 15 16 mph 995.9mb 36f
10:10pm 13 15 mph 996.3mb 36f
10:00pm 14 15 mph 997mb 35f
9:40pm 14 15 mph 996.6mb 35f
9:30pm 10 11 mph 996.6mb 35f
9:20pm 11 14 mph 996.6mb 35f
9:13pm 13 21 mph 996.6mb 35f
9:10pm 13 15 mph 997mb 35f
9:00pm 15 18 mph 997mb 35f
8:30pm 17 21 mph 996.6mb 34f
8:20pm 20 21 mph 996.6mb 34f
8:12pm 17 22 mph 996.6mb 34f
8:10pm 18 22 mph 997mb 34f
8:00pm 20 22 mph 996.6mb 34f
7:40pm 18 21 mph 997.3mb 34f
7:30pm 18 20 mph 997.6mb 34f
7:20pm 16 21 mph 997.6mb 34f
7:12pm 18 23 mph 997.3mb 34f
7:10pm 16 21 mph 997.3mb 34f
7:00pm 20 21 mph 998mb 34f
6:40pm 20 23 mph 998mb 35f
6:30pm 20 22 mph 998.3mb 35f
6:20pm 18 23 mph 999mb 35f
6:11pm 22 25 mph 999mb 35f
6:10pm 22 24 mph 998.6mb 35f
6:00pm 20 23 mph 999mb 35f
5:30pm 17 18 mph 998.6mb 34f
5:20pm 15 17 mph 999mb 34f
5:11pm 15 22 mph 998.6mb 34f
5:10pm 15 17 mph 998.6mb 34f
5:00pm 16 17 mph 998.6mb 34f
4:40pm 17 21 mph 999.3mb 34f
4:30pm 18 20 mph 999.3mb 34f
4:20pm 20 22 mph 999mb 34f
4:11pm 17 20 mph 999mb 34f
4:10pm 17 18 mph 999mb 34f
4:00pm 17 18 mph 999.3mb 34f
3:40pm 13 17 mph 1001mb 34f
3:30pm 16 20 mph 999mb 34f
3:10pm 16 18 mph 1000.7mb 34f
3:00pm 16 18 mph 1000.7mb 34f
2:40pm 15 17 mph 1001mb 34f
2:30pm 16 17 mph 1001mb 34f
2:20pm 16 17 mph 1001.4mb 34f
2:10pm 17 21 mph 1001.4mb 34f
2:00pm 16 20 mph 1001.4mb 34f
1:40pm 18 21 mph 1001.7mb 34f
1:30pm 18 21 mph 1002mb 34f
1:20pm 17 21 mph 1002.4mb 34f
1:10pm 18 21 mph 1002.4mb 34f
1:09pm 18 22 mph 1002.4mb 34f
1:00pm 20 22 mph 1002.4mb 34f
12:40pm 18 21 mph 1002.7mb 34f
12:30pm 18 20 mph 1003mb 34f
12:20pm 17 22 mph 1003mb 34f
12:10pm 18 21 mph 1003mb 34f
12:09pm 18 21 mph 1003mb 34f
12:00pm 18 20 mph 1003.4mb 34f
11:40am 15 17 mph 1004.1mb 34f
11:30am 17 18 mph 1003.4mb 34f
11:20am 16 17 mph 1003.4mb 34f
11:10am 16 17 mph 1003.7mb 34f
11:09am 15 22 mph 1003.7mb 35f
11:00am 16 17 mph 1003.4mb 35f
10:50am 14 17 mph 1004.1mb 35f
10:40am 16 20 mph 1003.7mb 35f
10:30am 17 21 mph 1003mb 35f
10:20am 18 22 mph 1003.7mb 35f
10:10am 18 21 mph 1004.1mb 35f
10:08am 20 25 mph 1004.1mb 35f
9:50am 14 25 mph 1005.8mb 35f
9:40am 18 25 mph 1005.1mb 35f
9:30am 25 29 mph 1004.1mb 35f
9:20am 28 31 mph 1003.7mb 35f
9:10am 28 31 mph 1003.7mb 34f
9:08am 28
mph
1003.7mb 34f
9:00am 28 31 mph 1004.1mb 34f
8:50am 26 33 mph 1004.4mb 34f
8:40am 28 32 mph 1004.4mb 34f
8:30am 26 30 mph 1005.1mb 34f
8:20am 25 28 mph 1005.4mb 34f
8:10am 24 28 mph 1005.8mb 34f
8:07am 23
mph
1005.4mb 34f
8:00am 22 26 mph 1006.1mb 34f
7:50am 23 30 mph 1006.1mb 34f
7:40am 26 30 mph 1005.8mb 34f
7:35am 25 30 mph 1005.8mb 34f
7:30am 24 29 mph 1006.4mb 33f
7:20am 25 29 mph 1006.4mb 33f
7:10am 25 29 mph 1006.4mb 33f
7:07am 25
mph
1006.8mb 33f
7:00am 24 29 mph 1006.4mb 33f
6:50am 24 26 mph 1005.4mb 33f
6:40am 23 29 mph 1006.1mb 33f
6:33am 24 29 mph 1005.4mb 33f
6:30am 25 28 mph 1005.4mb 33f
6:20am 23 28 mph 1005.8mb 32f
6:10am 24 28 mph 1006.1mb 32f
6:06am 25 28 mph 1006.1mb 32f
6:00am 25 28 mph 1006.4mb 32f
5:50am 24 28 mph 1007.5mb 32f
5:40am 21 28 mph 1007.5mb 32f
5:30am 25 28 mph 1006.8mb 32f
5:20am 9 10 mph 1008.1mb 32f
5:10am 8 9 mph 1008.1mb 32f
5:06am 8 18 mph 1008.1mb 31f
5:00am 9 10 mph 1008.1mb 31f
4:50am 9 11 mph 1008.8mb 31f
4:30am 11 16 mph 1009.1mb 31f
4:20am 15 18 mph 1009.8mb 31f
4:10am 16 23 mph 1009.8mb 31f
4:06am 18 25 mph 1009.5mb 32f
4:00am 18 24 mph 1009.1mb 32f
3:50am 18 24 mph 1009.1mb 32f
3:40am 22 24 mph 1009.5mb 32f
3:30am 21 25 mph 1009.5mb 32f
3:20am 20 21 mph 1009.1mb 32f
3:10am 18 22 mph 1009.5mb 31f
3:05am 20 22 mph 1009.5mb 31f
3:00am 18 21 mph 1010.2mb 31f
2:50am 16 18 mph 1010.5mb 31f
2:40am 15 18 mph 1010.5mb 31f
2:30am 15 17 mph 1011.2mb 32f
2:20am 13 20 mph 1012.2mb 32f
2:10am 17 21 mph 1010.8mb 32f
2:05am 16 23 mph 1010.8mb 32f
2:00am 18 22 mph 1010.8mb 32f
1:50am 17 23 mph 1011.2mb 32f
1:40am 21 23 mph 1011.2mb 33f
1:30am 21 22 mph 1011.2mb 33f
1:20am 18 22 mph 1011.5mb 33f
1:10am 17 22 mph 1011.5mb 33f
1:04am 17 21 mph 1011.5mb 33f
1:00am 18 21 mph 1011.5mb 33f
12:50am 17 20 mph 1012.2mb 33f
12:40am 16 17 mph 1012.5mb 33f
12:30am 14 15 mph 1012.5mb 33f
12:20am 14 16 mph 1012.5mb 33f
12:10am 14 18 mph 1012.5mb 33f
12:04am 16 22 mph 1012.5mb 33f
12:00am 17 22 mph 1012.5mb 33f
Thu 02/23 11:50pm 18 21 mph 1012.5mb 33f
11:40pm 20 22 mph 1012.5mb 33f
11:30pm 18 20 mph 1012.5mb 33f
11:10pm 20 22 mph 1012.5mb 33f
11:04pm 20 22 mph 1012.5mb 33f
11:00pm 20 22 mph 1012.5mb 33f
10:40pm 18 20 mph 1012.9mb 34f
10:30pm 17 20 mph 1012.9mb 34f
10:20pm 17 22 mph 1012.9mb 34f
10:10pm 21 22 mph 1011.9mb 34f
10:03pm 15 18 mph 1012.9mb 34f
10:00pm 14 16 mph 1012.9mb 34f
9:50pm 15 16 mph 1012.5mb 34f
9:40pm 15 16 mph 1012.5mb 34f
9:30pm 15 16 mph 1012.5mb 34f
9:20pm 13 15 mph 1012.9mb 34f
9:10pm 14
mph
1012.5mb 34f
9:03pm 13 20 mph 1012.5mb 34f
9:00pm 11 13 mph 1012.9mb 34f
8:50pm 10 13 mph 1012.9mb 34f
8:40pm 13 20 mph 1012.5mb 34f
8:30pm 16 17 mph 1011.9mb 34f
8:20pm 14 15 mph 1012.5mb 35f
8:10pm 14 17 mph 1012.9mb 35f
8:02pm 16 18 mph 1012.5mb 35f
8:00pm 16 18 mph 1012.2mb 35f
7:50pm 18
mph
1012.2mb 35f
7:30pm 14 15 mph 1012.9mb 36f
7:20pm 11 14 mph 1012.9mb 36f
7:10pm 14 15 mph 1012.9mb 36f
7:02pm 14 17 mph 1012.5mb 35f
7:00pm 14 16 mph 1012.5mb 35f
6:50pm 15 16 mph 1012.5mb 36f
6:40pm 14 16 mph 1012.5mb 36f
6:30pm 14 16 mph 1012.5mb 36f
6:20pm 14 16 mph 1012.2mb 35f
6:10pm 16 18 mph 1011.9mb 36f
6:02pm 16 21 mph 1011.5mb 36f
5:50pm 17 21 mph 1011.2mb 36f
5:30pm 16 17 mph 1011.5mb 36f
5:20pm 15 18 mph 1011.5mb 37f
5:10pm 17 20 mph 1011.5mb 37f
5:01pm 18 21 mph 1011.5mb 38f
5:00pm 18 21 mph 1011.5mb 38f
4:50pm 20
mph
1011.5mb 39f
4:40pm 16 18 mph 1011.9mb 41f
4:30pm 17 20 mph 1011.5mb 41f
4:20pm 18 20 mph 1011.5mb 41f
4:10pm 16 18 mph 1011.2mb 41f
4:01pm 17 20 mph 1011.2mb 42f
4:00pm 17 18 mph 1011.2mb 42f
3:50pm 18
mph
1011.2mb 42f
3:40pm 16 20 mph 1011.2mb 41f
3:30pm 17 18 mph 1011.2mb 40f
3:20pm 18
mph
1010.8mb 40f
3:10pm 18
mph
1010.5mb 42f
3:00pm 14 15 mph 1010.5mb 40f
2:50pm 14 15 mph 1010.2mb 41f
2:40pm 11 14 mph 1010.2mb 41f
2:30pm 13 14 mph 1009.8mb 38f
2:20pm 2 6 mph 1009.5mb 40f
2:10pm 2 7 mph 1009.5mb 42f
2:00pm 2 9 mph 1009.5mb 44f
1:50pm 1 5 mph 1009.1mb 43f
1:40pm 1 6 mph 1009.5mb 44f
1:30pm  -  7 mph 1009.1mb 43f
1:20pm  -  6 mph 1008.8mb 44f
1:10pm 5 9 mph 1008.5mb 44f
1:00pm 6 13 mph 1008.5mb 43f
12:50pm 3 8 mph 1008.5mb 43f
12:30pm 8 11 mph 1008.8mb 43f
12:20pm 9 11 mph 1008.5mb 43f
12:10pm 9 11 mph 1008.5mb 43f
12:00pm 10 11 mph 1008.5mb 43f
11:50am 11 13 mph 1008.5mb 44f
11:40am 11 13 mph 1008.1mb 43f
11:30am 11 13 mph 1008.1mb 41f
11:21am 11 13 mph 1008.1mb 42f
11:20am 11 13 mph 1008.1mb 42f
11:10am 11 15 mph 1008.1mb 43f
11:00am 14 25 mph 1007.8mb 43f
10:50am 23 26 mph 1007.5mb 43f
10:40am 20 23 mph 1007.5mb 43f
10:30am 20 24 mph 1007.5mb 44f
10:20am 23
mph
1007.5mb 44f
10:10am 22 25 mph 1007.1mb 44f
10:00am 22 24 mph 1007.1mb 45f
9:50am 20 22 mph 1007.1mb 45f
9:40am 22 24 mph 1006.8mb 45f
9:30am 21 23 mph 1006.8mb 44f
9:20am 23 29 mph 1006.8mb 45f
9:10am 26 30 mph 1006.4mb 46f
9:05am 25 29 mph 1006.1mb 46f
9:00am 24 26 mph 1006.1mb 46f
8:50am 21 22 mph 1006.1mb 46f
8:40am 22 25 mph 1005.4mb 47f
8:30am 22 28 mph 1005.1mb 47f
8:20am 20 21 mph 1004.7mb 48f
8:19am 20
mph
1004.7mb 48f
8:10am 20 25 mph 1004.7mb 48f
8:00am 25 31 mph 1004.7mb 48f
7:51am 24 30 mph 1004.4mb 47f
7:50am 24 26 mph 1004.4mb 47f
7:40am 22 25 mph 1004.1mb 49f
7:30am 21 23 mph 1004.1mb 50f
7:19am 22 26 mph 1003.7mb 51f
7:10am 23 24 mph 1003.7mb 51f
7:00am 22 25 mph 1003.4mb 52f
6:40am 24 26 mph 1002.7mb 52f
6:30am 22
mph
1002.4mb 50f
6:20am 22 23 mph 1002.4mb 48f
6:19am 22 25 mph 1002.4mb 49f
6:10am 22
mph
1002mb 49f
6:00am 20 22 mph 1002mb 49f
5:50am 20 22 mph 1001.7mb 51f
5:40am 21 23 mph 1002mb 51f
5:30am 23 25 mph 1001.7mb 50f
5:20am 18 20 mph 1001.7mb 46f
5:18am 18 24 mph 1001.7mb 45f
5:10am 16 22 mph 1001.7mb 46f
5:00am 21 22 mph 1001.7mb 47f
4:50am 22 24 mph 1001.7mb 48f
4:40am 23 24 mph 1001.7mb 47f
4:30am 20 23 mph 1001.7mb 47f
4:20am 17 22 mph 1001.4mb 49f
4:18am 15 21 mph 1001.4mb 49f
4:10am 13 20 mph 1001.4mb 49f
4:00am 11 21 mph 1001.4mb 49f
3:50am 8 11 mph 1001.4mb 49f
2:50am 13 15 mph 1001mb 47f
1:50am 11 14 mph 1001.4mb 47f
12:50am 16 22 mph 1001.7mb 51f
Wed 02/22 11:50pm 9 11 mph 1002.7mb 54f
10:50pm 15 18 mph 1003.7mb 54f
9:50pm 14 16 mph 1003.7mb 47f
8:50pm 15 24 mph 1003.4mb 47f
7:50pm 17 24 mph 1003.7mb 47f
6:50pm 18 23 mph 1004.1mb 49f
5:50pm 15 20 mph 1004.7mb 49f
4:50pm 5 11 mph 1004.7mb 49f
3:50pm 13
mph
1005.4mb 49f
2:50pm 11 15 mph 1006.1mb 46f
1:50pm 6 15 mph 1006.4mb 49f
12:50pm 2 7 mph 1007.1mb 45f
11:50am 18 22 mph 1008.1mb 44f
10:50am 5 10 mph 1008.8mb 42f
9:50am 2 3 mph 1009.5mb 41f
8:50am 8 9 mph 1009.8mb 41f
7:50am 9 14 mph 1010.5mb 42f
6:50am 2 7 mph 1010.5mb 41f
4:40am 3 7 mph 1010.8mb 42f
4:30am 3 6 mph 1011.2mb 42f
4:20am 2 6 mph 1010.8mb 42f
4:10am 2 6 mph 1010.8mb 42f
4:08am 2 10 mph 1010.8mb 41f
4:00am 3 10 mph 1010.8mb 40f
3:40am 2 5 mph 1010.8mb 40f
3:30am  -  6 mph 1010.8mb 40f
3:20am 2 5 mph 1010.8mb 40f
3:10am  -  2 mph 1010.8mb 40f
3:08am  -  10 mph 1010.8mb 41f
3:00am 1 10 mph 1010.8mb 40f
2:40am 5 8 mph 1010.8mb 39f
2:30am 2 8 mph 1010.8mb 39f
2:20am 6 9 mph 1010.8mb 39f
2:10am 6 16 mph 1010.8mb 39f
2:07am 9 17 mph 1010.8mb 38f
2:00am 16 17 mph 1010.5mb 38f
1:40am 10 13 mph 1011.2mb 38f
1:30am 5 10 mph 1011.5mb 38f
1:20am 8 10 mph 1011.5mb 39f
1:10am 8 13 mph 1011.5mb 39f
1:07am 11 15 mph 1011.5mb 39f
1:00am 10 14 mph 1011.5mb 40f
12:40am 8 10 mph 1011.5mb 42f
12:30am 8 15 mph 1011.5mb 39f
12:20am 8 14 mph 1012.2mb 40f
12:10am 10
mph
1012.2mb 40f
12:06am  -  9 mph 1012.2mb 42f
12:00am  -  1 mph 1012.2mb 43f
Tue 02/21 11:40pm 5 8 mph 1012.5mb 39f
11:30pm 3 7 mph 1012.9mb 38f
11:20pm 3 6 mph 1013.2mb 37f
11:10pm  -  2 mph 1012.9mb 37f
11:06pm  -  8 mph 1012.9mb 37f
11:00pm 2 6 mph 1013.2mb 37f
10:40pm 7
mph
1013.2mb 36f
10:30pm 6 8 mph 1013.2mb 37f
10:20pm 7 8 mph 1013.2mb 38f
10:10pm 6 7 mph 1012.9mb 39f
10:06pm 2 17 mph 1012.9mb 39f
10:00pm 2 6 mph 1012.9mb 39f
9:40pm 3 7 mph 1012.9mb 45f
9:30pm 6 8 mph 1013.2mb 44f
9:20pm 8 14 mph 1013.5mb 46f
9:10pm 6 17 mph 1013.2mb 43f
9:05pm 7 16 mph 1013.2mb 46f
9:00pm 5 15 mph 1013.2mb 44f
8:40pm 9 13 mph 1013.5mb 48f
8:30pm 11 14 mph 1013.5mb 48f
8:20pm 10 15 mph 1013.2mb 49f
8:10pm 13 16 mph 1013.5mb 49f
8:05pm 13 16 mph 1013.2mb 49f
8:00pm 11 14 mph 1013.5mb 48f
7:40pm 9 10 mph 1013.5mb 51f
7:30pm 7 9 mph 1013.5mb 51f
7:20pm 6 8 mph 1013.5mb 50f
7:10pm 7 8 mph 1013.5mb 49f
7:04pm 6 8 mph 1013.5mb 49f
7:00pm 2 8 mph 1013.5mb 49f
6:40pm 2 5 mph 1013.5mb 50f
6:30pm 1 5 mph 1013.9mb 51f
6:20pm 1 6 mph 1013.9mb 50f
6:10pm  -  6 mph 1013.5mb 50f
6:04pm 5 11 mph 1013.9mb 50f
6:00pm 2 11 mph 1013.9mb 50f